Home > Weather > Pretoria > Past weeks

Flag for South Africa Weather for the Past 2 Weeks in Pretoria, South Africa

Now
72 °F

Mild.


Feels Like: 76 °F
Forecast: 44 / 72 °F
Wind: 5 mph from East

Location: Waterkloof Lmb

Current Time: May 4, 2016 at 1:51:35 PM

Latest Report: May 4, 2016 at 1:00 PM


Visibility: N/A

Pressure: 30.33 "Hg (25.98 "Hg at 1338m altitude)

Humidity: 27%

Dew Point: 36 °F

Location of PretoriaLocation

Historic Weather in Pretoria — Graph

°F

Pretoria Temperature Yesterday

Maximum temperature yesterday: 75 °F (at 3:00 PM)
Minimum temperature yesterday: 57 °F (at 11:00 PM)
Average temperature yesterday: 67 °F

High & Low Weather Summary for the Past Weeks

 TemperatureHumidityPressure
High84 °F (Apr 26, 2:00 PM)94% (Apr 21, 10:00 PM)30.39 "Hg (Apr 21, 10:00 PM)
Low45 °F (Apr 22, 6:00 AM)18% (Apr 28, 4:00 PM)30.01 "Hg (Apr 29, 3:00 PM)
Average65 °F56%30.22 "Hg
* Reported Apr 19 12:00 Noon — May 4 12:00 Noon, Pretoria, Weather by CustomWeather, © 2016

Note: Actual official high and low records may vary slightly from our data, if they occured in-between our weather recording intervals... More about our weather records

Advertising

Pretoria Weather History for the Previous 24 Hours

Scroll right to see more
 ConditionsComfort  
Time TempWeatherWind HumidityBarometerVisibility
12:00 PM
Wed, May 4
70 °FMild.9 mph29%30.33 "HgN/A
11:00 AM66 °FMild.12 mph43%30.36 "HgN/A
10:00 AM61 °FRefreshingly cool.7 mph55%30.36 "HgN/A
9:00 AM54 °FCool.7 mph72%30.36 "HgN/A
8:00 AM48 °FCool.7 mph76%30.30 "HgN/A
7:00 AM45 °FQuite cool.6 mph81%30.30 "HgN/A
6:00 AM45 °FQuite cool.6 mph76%30.27 "HgN/A
5:00 AM45 °FQuite cool.6 mph66%30.24 "HgN/A
3:00 AM50 °FCool.6 mph47%30.21 "HgN/A
2:00 AM52 °FCool.5 mph44%30.24 "HgN/A
1:00 AM55 °FRefreshingly cool.7 mph38%30.24 "HgN/A
12:00 AM54 °FCool.5 mph44%30.24 "HgN/A
11:00 PM
Tue, May 3
57 °FRefreshingly cool.7 mph41%30.24 "HgN/A
10:00 PM59 °FRefreshingly cool.8 mph42%30.24 "HgN/A
9:00 PM59 °FRefreshingly cool.3 mph51%30.24 "HgN/A
8:00 PM63 °FMild.3 mph52%30.24 "HgN/A
7:00 PM64 °FMild.3 mph46%30.21 "HgN/A
6:00 PM68 °FMild.6 mph40%30.18 "HgN/A
5:00 PM72 °FMild.9 mph36%30.15 "HgN/A
4:00 PM73 °FMild.12 mph36%30.15 "HgN/A
3:00 PM75 °FMild.9 mph34%30.15 "HgN/A
2:00 PM73 °FMild.10 mph36%30.18 "HgN/A
1:00 PM72 °FMild.8 mph36%30.18 "HgN/A
Weather by CustomWeather, © 2016

See weather overviewHow to use our weather pages